Temperature
18 18 18 18 18 18 18 18 18 18 18 18 18 18 18 18 18 18 18 18 18 18 18 18 18 18 18 18 18 18 18 18 17 17 17 17 17 17 17 17 17 17 17
18 18 18 18 18 18 18 18 18 18 18 18 18 18 18 18 18 18 18 18 18 18 18 18 18 18 18 18 18 18 17 17 17 17 17 17 17 17 17 17 17 17 17
18 18 18 18 18 18 18 18 18 18 18 18 18 18 18 18 18 18 18 18 18 18 18 18 18 18 18 18 18 18 17 17 17 17 17 17 17 17 17 17 17 17 17
19 19 18 18 18 18 18 18 18 18 18 18 18 18 18 18 18 18 18 18 18 18 18 18 18 18 18 18 18 18 18 17 17 17 17 17 17 17 17 17 17 17 17
19 19 18 18 18 18 18 18 18 18 18 18 18 18 18 18 18 18 18 18 18 18 18 18 18 18 18 18 17 17 17 17 17 18 17 17 17 17 17 17 17 17 17
19 19 18 18 18 18 18 18 18 18 18 18 18 18 18 18 18 18 18 18 18 18 18 18 17 17 17 17 17 17 17 17 18 18 17 17 17 17 17 17 17 17 17
19 19 19 18 18 18 18 18 18 18 18 18 18 18 18 18 18 18 18 18 18 18 18 17 17 17 17 17 17 17 18 18 18 17 17 17 17 17 17 17 17 17 17
19 19 19 18 18 18 18 18 18 18 18 18 18 18 18 18 18 18 18 18 18 18 17 17 17 17 17 17 17 17 17 18 18 17 17 17 17 17 17 17 17 17 17
19 19 19 19 18 18 18 18 18 18 18 18 18 18 18 18 18 18 18 18 18 17 17 17 17 17 17 17 17 17 17 18 18 17 17 17 17 17 17 17 17 17 17
19 19 19 19 19 18 18 18 18 18 18 18 18 18 18 18 18 18 18 18 18 17 17 17 17 17 17 17 17 17 17 17 18 17 17 17 17 17 17 17 17 17 17
19 19 19 19 18 18 18 18 18 18 18 18 18 18 18 18 18 18 18 18 18 17 17 17 17 17 17 17 17 17 17 17 18 18 18 17 17 17 17 17 17 17 17
19 19 19 19 19 18 18 18 18 18 18 18 18 18 18 18 18 18 18 18 18 18 17 17 17 17 17 17 17 17 17 17 17 17 18 17 17 17 17 17 17 17 17
19 19 19 19 19 19 19 18 18 18 18 18 18 18 18 18 18 18 18 18 18 18 18 17 17 17 17 17 17 17 17 17 17 17 17 17 17 17 17 17 17 17 17
20 19 19 19 19 19 19 18 18 18 18 18 18 18 18 18 18 18 18 18 18 18 18 17 17 17 18 18 17 17 17 17 17 17 17 17 17 17 17 17 17 17 17
20 19 19 19 19 19 19 18 18 18 18 18 18 18 18 18 18 18 18 18 18 18 18 18 18 18 18 18 18 18 17 17 17 17 17 17 17 17 17 17 17 17 17
20 20 19 19 19 19 19 18 18 18 18 18 18 18 18 18 18 18 18 18 18 18 18 18 18 18 18 18 18 18 18 17 17 17 17 17 17 17 17 17 17 17 17
20 20 20 19 19 19 19 18 18 18 18 18 18 18 18 18 18 18 18 18 18 18 18 18 18 18 18 18 18 18 18 17 17 17 17 17 17 17 17 17 17 17 16
20 20 20 19 19 19 19 18 18 18 18 18 18 18 18 18 18 18 18 18 18 18 18 18 18 18 18 18 18 18 17 17 17 17 17 17 17 17 17 17 17 16 16
21 20 20 19 19 19 19 18 18 18 18 18 18 18 18 18 18 18 18 18 18 18 18 18 18 18 18 18 18 17 17 17 17 17 17 17 17 17 17 17 17 16 16
21 20 20 20 19 19 19 18 18 18 18 18 18 18 18 18 18 18 18 18 18 18 18 17 18 18 18 18 17 17 17 17 17 17 17 17 17 17 17 17 17 16 16
21 20 20 20 19 19 19 19 18 18 18 18 18 18 18 18 18 18 18 18 18 18 17 17 17 18 18 17 17 17 17 17 17 17 17 17 17 17 17 17 17 16 16
21 20 20 20 20 19 19 19 19 18 18 18 18 18 18 18 18 18 18 17 17 17 17 17 17 17 17 17 17 17 17 17 17 17 17 17 17 17 17 16 16 16 16
21 21 20 20 20 19 19 19 18 18 18 18 18 18 18 18 18 17 17 17 17 17 17 17 17 17 17 17 17 17 17 17 17 16 16 16 16 16 16 16 16 16 16
21 21 20 20 20 19 19 19 19 18 18 18 18 18 18 18 18 17 17 17 17 17 17 17 17 17 17 17 17 17 17 16 16 16 16 16 16 16 16 16 16 16 16
22 21 21 20 20 20 19 19 19 19 18 18 18 18 18 18 18 18 17 17 17 17 17 17 17 17 17 17 17 17 17 16 16 16 15 15 15 15 15 15 15 15 15
22 21 21 20 20 20 19 19 19 19 18 18 18 18 18 18 18 18 17 17 17 17 17 17 17 17 17 17 17 17 16 16 16 16 15 15 15 15 15 15 15 15 15
Wind_Speed
1 2 6 9 10 11 12 13 14 14 15 15 16 17 17 18 18 18 18 18 19 19 19 19 19 20 20 20 20 20 19 19 19 19 19 18 18 18 18 18 18 17 19
3 3 7 9 10 11 12 13 14 14 14 15 16 16 17 17 18 18 18 19 19 19 19 20 19 19 19 19 19 19 19 19 19 19 18 18 18 18 17 17 17 16 18
4 4 7 8 10 10 11 12 13 14 14 14 15 16 16 16 17 18 18 18 18 19 19 19 19 19 19 18 18 18 18 18 18 18 17 14 16 17 17 17 17 17 17
5 5 6 9 9 10 11 12 12 13 13 14 14 15 15 15 16 17 17 18 18 18 18 18 18 18 18 17 17 17 17 17 17 16 13 12 13 16 16 16 16 16 16
5 5 6 9 9 10 10 11 12 12 12 13 13 13 14 15 15 16 16 17 17 17 17 17 17 16 16 16 15 15 15 15 15 13 12 12 12 15 15 15 15 15 15
4 5 6 9 9 9 10 10 11 11 12 12 12 12 12 13 13 14 15 15 16 16 16 16 15 15 15 14 14 14 14 14 13 12 11 11 11 14 14 15 14 14 14
4 4 6 9 9 9 9 9 10 10 11 11 11 11 11 12 12 12 13 13 14 14 14 14 14 13 13 13 12 12 13 14 12 11 10 10 11 13 13 14 13 13 13
4 4 5 8 8 8 8 9 9 9 9 10 10 10 10 10 10 10 11 12 12 12 12 12 12 12 11 11 11 12 13 12 12 11 10 9 11 12 13 12 12 12 12
4 3 3 4 6 7 7 7 8 8 8 8 9 9 9 9 9 9 9 10 10 10 10 10 11 10 10 10 10 10 10 11 11 9 9 9 11 12 12 12 11 11 11
3 2 2 3 4 4 4 6 6 7 7 7 7 7 8 7 7 7 7 7 8 8 8 8 8 9 9 9 9 9 10 10 9 8 7 9 11 11 11 11 11 11 10
3 1 1 2 2 2 2 4 4 5 5 5 5 5 5 5 5 4 4 5 6 6 6 6 7 7 7 7 7 8 9 7 8 7 7 9 11 11 11 11 11 10 10
5 3 2 2 2 2 1 2 2 3 3 3 4 4 4 3 3 3 3 4 4 4 4 5 5 6 6 5 5 7 6 7 7 6 7 10 10 11 11 10 10 10 10
5 4 4 3 3 2 1 2 2 2 2 2 2 2 2 2 2 3 2 2 3 3 3 4 4 4 4 4 3 4 6 6 6 6 7 10 10 11 10 10 10 10 10
5 5 4 4 3 3 2 2 2 1 1 1 1 1 1 1 0 1 1 1 1 1 2 2 2 3 3 3 3 4 5 5 6 6 7 10 10 11 11 10 10 10 10
6 6 5 5 4 3 3 2 2 2 2 2 2 2 3 2 1 1 1 1 1 0 0 1 1 1 1 1 2 4 5 6 6 7 7 10 11 11 11 11 11 11 11
7 6 5 5 4 4 3 2 2 3 3 3 3 3 4 4 2 1 1 1 2 1 1 1 0 0 0 0 1 3 5 6 6 7 7 9 11 12 11 11 11 11 11
7 6 6 6 5 4 3 3 3 3 3 3 3 3 4 4 4 3 2 2 2 2 2 1 0 0 0 0 0 1 3 4 6 7 8 8 9 11 12 12 12 12 12
6 6 6 6 5 5 3 3 2 3 3 3 3 3 4 5 5 3 2 2 2 1 1 1 0 0 0 0 0 1 1 3 4 5 6 7 8 8 11 12 13 13 13
7 6 5 5 6 5 4 3 2 2 2 2 3 3 4 5 5 4 2 2 2 1 1 1 1 1 1 1 1 1 1 1 2 3 4 6 7 7 8 9 11 11 12
6 5 5 4 5 4 3 2 1 1 0 1 2 3 3 4 4 4 2 2 1 1 1 1 1 1 1 1 0 1 0 1 1 2 3 4 5 6 7 7 8 8 10
5 5 5 5 4 4 2 2 2 1 0 0 1 2 3 3 4 3 2 1 1 1 2 2 1 1 1 1 1 1 1 0 0 1 1 1 2 3 3 5 5 5 6
7 6 5 5 5 4 3 2 2 2 1 1 0 1 2 2 2 3 2 1 1 1 1 1 1 1 1 2 2 1 1 1 1 0 0 1 1 1 1 1 1 2 3
8 8 7 6 5 4 4 3 2 2 1 1 1 1 1 1 1 1 1 1 1 2 2 2 2 3 2 1 1 3 2 2 1 1 1 1 2 2 1 1 1 1 1
9 7 6 6 5 4 5 4 4 3 2 2 1 0 1 1 0 1 1 1 1 1 2 2 2 2 3 2 2 1 2 3 2 0 1 2 3 3 2 2 2 2 2
8 7 6 5 4 4 4 5 4 3 2 1 1 0 1 1 1 0 1 1 1 1 1 1 1 2 2 3 2 2 2 1 1 2 1 1 2 3 2 2 3 3 4
6 6 5 5 4 4 5 4 5 5 4 3 1 1 0 1 1 1 0 0 0 0 1 1 1 2 2 2 2 2 2 2 2 2 2 1 1 2 3 3 3 4 5
Wind_Direction
57 92 96 89 85 84 82 82 84 83 84 86 90 90 90 92 93 92 94 97 98 99 100 100 101 102 104 107 109 109 109 110 111 111 111 112 112 111 110 109 109 111 113
139 115 103 95 89 86 84 84 86 85 84 86 91 92 92 92 93 93 94 96 98 101 102 103 103 102 104 106 108 109 110 111 111 111 111 112 113 113 112 112 113 115 114
113 111 107 101 94 90 87 87 89 88 87 88 91 93 93 93 93 93 94 95 96 97 100 101 102 103 104 106 107 107 107 108 109 109 107 109 114 115 115 115 116 116 116
119 115 116 107 99 94 90 90 91 92 91 90 91 92 93 93 93 93 94 95 95 97 99 99 101 103 105 107 108 109 110 110 111 109 104 108 115 118 118 119 119 118 118
114 119 126 113 105 99 94 92 93 94 95 93 93 91 91 92 94 95 96 96 97 98 99 98 100 102 105 107 109 112 114 114 112 106 103 106 114 122 123 123 123 123 122
109 119 128 117 110 104 99 97 97 96 96 96 95 94 93 92 93 96 98 98 98 98 99 98 99 101 103 106 108 111 114 117 112 109 109 111 119 125 126 126 127 127 126
116 121 129 121 115 109 105 101 100 99 99 98 97 96 95 94 93 95 98 99 100 100 99 98 99 100 102 103 107 113 118 121 120 119 119 120 126 130 130 129 130 132 130
120 116 123 123 120 115 111 107 104 102 101 100 100 99 97 95 94 95 98 101 101 101 100 100 100 99 102 104 106 117 124 127 129 130 130 132 137 137 136 135 135 136 136
104 99 93 108 116 119 117 112 109 108 105 103 104 104 103 101 98 97 96 99 100 100 101 101 100 97 101 105 108 122 128 130 132 136 139 141 145 144 143 142 141 141 142
95 87 91 95 96 102 114 120 116 113 110 106 107 106 103 100 99 98 96 99 100 98 99 98 97 96 100 107 112 120 127 130 135 140 143 152 155 153 151 151 151 150 149
157 129 118 111 108 109 125 126 115 111 107 101 100 103 89 73 75 82 93 98 99 98 96 91 91 93 95 100 115 125 125 135 142 148 155 161 163 163 161 161 161 160 159
191 196 185 169 159 152 145 112 93 83 87 82 77 79 79 73 65 71 72 85 91 92 93 87 84 85 83 83 109 124 132 144 150 158 169 172 173 173 171 170 170 171 169
194 197 190 192 189 183 164 137 114 91 94 90 87 93 96 76 54 47 36 34 47 59 59 59 61 70 79 84 100 128 146 153 162 170 179 180 180 178 177 177 178 179 180
186 201 197 190 193 199 188 170 153 149 148 165 194 172 148 131 35 19 3 353 13 37 50 51 59 65 77 97 126 147 160 167 175 182 188 188 189 189 189 189 190 190 189
192 200 195 187 189 193 183 192 176 189 190 198 211 212 192 185 203 264 304 306 304 340 76 59 56 53 56 98 148 167 177 184 187 190 198 201 199 199 200 200 200 201 201
198 198 191 191 191 187 182 191 200 203 201 197 217 218 204 200 206 210 249 276 280 260 223 203 218 312 317 146 190 185 187 192 195 196 206 212 210 207 208 209 208 209 209
197 192 190 193 187 185 186 197 209 214 205 208 222 220 210 208 206 204 207 236 256 255 242 223 235 6 269 185 205 199 194 199 201 206 212 215 216 217 217 219 218 217 217
184 187 196 194 179 181 177 188 200 203 201 215 219 217 215 211 207 197 203 238 252 241 215 210 183 67 325 328 273 241 204 202 208 216 217 215 216 221 226 227 226 225 227
179 179 184 182 171 173 169 173 182 181 192 218 218 217 219 209 202 194 210 234 226 204 226 228 176 178 233 257 247 255 222 216 216 215 216 219 220 223 228 233 235 233 234
171 173 176 169 164 154 139 120 93 84 153 227 223 225 223 214 203 194 208 220 194 174 232 215 194 172 193 207 253 41 41 222 204 211 222 222 227 230 230 234 239 241 241
165 176 181 171 167 148 136 143 147 181 217 233 240 237 227 220 205 190 201 196 182 196 217 197 173 163 175 134 97 35 15 33 172 236 229 217 227 232 227 228 232 236 247
180 190 192 190 181 173 160 157 157 153 172 192 234 263 232 220 211 201 195 199 191 190 198 180 168 164 191 156 145 134 332 347 2 340 68 169 151 126 131 190 213 221 243
191 197 200 196 189 181 163 129 102 77 56 56 30 312 303 246 212 202 204 210 215 197 212 210 193 185 200 205 172 156 166 221 296 13 45 75 78 76 67 74 83 95 131
199 196 194 188 183 177 166 163 165 171 184 206 199 223 341 350 292 193 219 222 219 213 226 229 200 196 189 213 213 208 190 164 173 222 34 63 73 66 55 46 49 60 80
189 185 185 174 175 171 167 167 162 166 175 157 119 64 358 356 357 315 225 218 221 218 213 207 184 186 195 198 194 184 185 157 167 180 198 95 71 55 55 56 53 57 68
175 173 171 168 178 174 167 163 164 167 168 158 160 174 302 348 347 349 19 85 121 196 213 206 183 178 187 184 189 181 171 162 179 176 190 176 117 72 58 57 54 56 67
Height
1525 1524 1524 1524 1524 1523 1523 1522 1521 1520 1519 1519 1518 1518 1518 1518 1519 1519 1519 1519 1520 1521 1522 1524 1525 1527 1528 1530 1532 1534 1536 1538 1540 1542 1543 1545 1547 1549 1550 1552 1553 1555 1556
1526 1526 1526 1526 1526 1526 1526 1525 1524 1523 1523 1522 1522 1522 1522 1522 1522 1523 1522 1523 1524 1525 1526 1528 1529 1530 1532 1534 1535 1537 1539 1541 1543 1545 1546 1548 1550 1551 1553 1554 1556 1557 1559
1527 1528 1529 1529 1529 1528 1528 1528 1527 1526 1526 1525 1525 1525 1525 1526 1526 1527 1527 1527 1528 1529 1530 1531 1532 1534 1535 1537 1539 1540 1542 1544 1545 1547 1549 1550 1552 1554 1555 1556 1558 1559 1561
1529 1530 1530 1531 1531 1531 1531 1531 1530 1530 1529 1529 1529 1529 1529 1529 1530 1530 1531 1531 1532 1533 1534 1535 1536 1538 1539 1540 1542 1543 1545 1547 1548 1550 1551 1553 1554 1556 1557 1559 1560 1561 1563
1531 1532 1533 1533 1533 1533 1533 1533 1533 1533 1533 1532 1532 1532 1533 1533 1534 1534 1534 1535 1536 1536 1537 1538 1540 1541 1542 1543 1545 1546 1548 1549 1551 1552 1553 1555 1556 1558 1559 1561 1562 1563 1565
1533 1534 1535 1535 1536 1536 1536 1536 1536 1536 1536 1536 1536 1536 1536 1537 1537 1538 1538 1539 1539 1540 1541 1542 1543 1544 1545 1546 1548 1549 1550 1552 1553 1554 1556 1557 1559 1560 1561 1563 1564 1565 1566
1535 1536 1537 1538 1538 1538 1538 1539 1539 1539 1539 1539 1539 1539 1540 1540 1541 1541 1542 1542 1543 1544 1545 1545 1547 1548 1549 1550 1550 1552 1553 1554 1555 1557 1558 1559 1561 1562 1563 1564 1566 1567 1568
1537 1538 1539 1540 1540 1541 1541 1541 1541 1541 1541 1542 1542 1542 1543 1543 1544 1544 1545 1546 1546 1547 1548 1549 1550 1551 1552 1553 1553 1554 1555 1557 1558 1559 1560 1561 1562 1564 1565 1566 1567 1568 1569
1540 1540 1541 1542 1542 1543 1543 1544 1544 1544 1544 1545 1545 1545 1546 1546 1547 1547 1548 1549 1549 1550 1551 1552 1553 1554 1555 1555 1556 1557 1558 1559 1560 1561 1562 1563 1564 1565 1566 1567 1568 1569 1571
1541 1542 1543 1544 1544 1545 1545 1546 1546 1547 1547 1547 1548 1548 1548 1549 1549 1550 1551 1551 1552 1553 1554 1555 1555 1556 1557 1558 1558 1559 1560 1561 1562 1563 1563 1564 1565 1566 1567 1568 1570 1571 1572
1543 1544 1545 1546 1546 1547 1547 1548 1548 1549 1549 1549 1550 1550 1551 1551 1552 1552 1553 1554 1555 1555 1556 1557 1558 1558 1559 1560 1560 1561 1562 1562 1563 1564 1565 1566 1566 1567 1568 1569 1570 1571 1572
1544 1545 1546 1547 1548 1549 1549 1550 1550 1551 1551 1551 1552 1552 1553 1554 1554 1555 1555 1556 1557 1557 1558 1559 1560 1560 1561 1562 1562 1563 1563 1564 1564 1565 1566 1567 1567 1568 1569 1570 1571 1572 1573
1546 1547 1548 1548 1549 1550 1551 1552 1552 1553 1553 1553 1554 1554 1555 1556 1556 1557 1557 1558 1558 1559 1560 1561 1561 1562 1562 1563 1564 1564 1565 1565 1565 1566 1567 1567 1568 1569 1569 1570 1571 1572 1573
1547 1548 1549 1550 1551 1552 1552 1553 1554 1554 1555 1555 1555 1556 1556 1557 1557 1558 1558 1559 1560 1560 1561 1562 1562 1563 1564 1564 1564 1565 1565 1566 1566 1567 1567 1568 1568 1569 1570 1571 1571 1572 1573
1548 1549 1550 1551 1552 1553 1553 1554 1555 1555 1556 1556 1557 1557 1557 1558 1559 1559 1560 1560 1561 1561 1562 1563 1563 1564 1564 1564 1565 1565 1566 1566 1566 1567 1568 1568 1569 1569 1570 1571 1571 1572 1573
1548 1549 1550 1551 1552 1553 1554 1555 1556 1556 1557 1557 1557 1558 1558 1559 1559 1560 1560 1561 1561 1562 1562 1563 1563 1564 1564 1564 1565 1565 1566 1566 1566 1567 1567 1568 1569 1569 1570 1570 1571 1572 1572
1548 1550 1551 1552 1553 1554 1555 1555 1556 1557 1557 1557 1558 1558 1559 1559 1559 1560 1560 1561 1562 1562 1563 1563 1563 1564 1564 1564 1564 1565 1565 1566 1566 1567 1567 1567 1568 1569 1569 1569 1570 1571 1571
1549 1550 1551 1552 1553 1554 1555 1555 1556 1557 1557 1557 1558 1558 1559 1559 1559 1560 1560 1561 1562 1562 1562 1563 1563 1563 1563 1563 1564 1564 1564 1565 1565 1565 1566 1566 1567 1567 1568 1568 1569 1569 1570
1548 1549 1550 1551 1552 1554 1554 1555 1556 1556 1557 1557 1558 1558 1558 1559 1559 1560 1560 1561 1561 1561 1562 1562 1562 1562 1563 1563 1563 1563 1563 1564 1564 1564 1565 1565 1565 1566 1566 1567 1567 1567 1568
1548 1549 1550 1551 1552 1553 1554 1555 1555 1556 1556 1557 1557 1557 1558 1558 1559 1559 1559 1560 1560 1560 1561 1561 1561 1561 1561 1562 1562 1562 1562 1562 1562 1562 1563 1563 1563 1564 1564 1565 1565 1565 1566
1547 1548 1549 1550 1551 1552 1553 1554 1555 1555 1556 1556 1557 1557 1557 1557 1558 1558 1558 1559 1559 1559 1559 1560 1560 1560 1560 1560 1560 1560 1560 1560 1560 1560 1561 1561 1561 1562 1562 1562 1563 1563 1564
1545 1547 1548 1549 1550 1552 1553 1553 1554 1554 1555 1555 1556 1556 1556 1557 1557 1557 1557 1558 1558 1558 1558 1558 1558 1558 1558 1558 1559 1558 1559 1560 1558 1558 1558 1558 1559 1559 1560 1560 1561 1561 1562
1544 1546 1547 1548 1549 1551 1552 1552 1553 1553 1554 1554 1555 1555 1555 1556 1556 1556 1556 1557 1557 1557 1556 1556 1556 1556 1556 1557 1557 1558 1557 1556 1557 1557 1557 1556 1557 1557 1558 1558 1559 1559 1559
1542 1545 1546 1547 1548 1549 1550 1551 1551 1552 1553 1553 1554 1554 1555 1555 1555 1555 1555 1555 1555 1555 1555 1555 1554 1554 1555 1554 1555 1555 1555 1555 1555 1555 1556 1555 1555 1555 1556 1556 1556 1557 1557
1541 1543 1545 1546 1547 1548 1549 1549 1550 1551 1551 1552 1552 1553 1553 1554 1554 1554 1554 1553 1553 1553 1553 1553 1552 1552 1552 1552 1552 1552 1552 1552 1553 1553 1553 1554 1554 1554 1554 1555 1555 1556 1556
1539 1541 1543 1544 1545 1546 1547 1548 1549 1549 1550 1550 1551 1551 1552 1552 1552 1552 1552 1552 1552 1551 1551 1551 1550 1550 1550 1549 1549 1549 1549 1550 1550 1550 1551 1552 1552 1553 1553 1554 1554 1554 1554